User: anonymous   Login
Location: Unspecified
(0.0000°N, 0.0000°E)
Time: 01:44:06
(UTC+02:00)
Language:

PSLV R/B - Orbit

View from above orbital plane
View from above orbital plane
View from above satellite
View from above satellite

Ground track
Ground track

The orbit data is extracted from the following two-line orbital elements,

1 29713U 07001E   17228.19447734  .00000155  00000-0  24332-4 0  9998
2 29713  97.7695 199.2174 0023666 257.9513 101.9050 14.85114747572973
Epoch (UTC): 16 August 2017 04:40:02
Eccentricity: 0.0023666
inclination: 97.7695°
perigee height: 596 km
apogee height: 630 km
right ascension of ascending node: 199.2174°
argument of perigee: 257.9513°
revolutions per day: 14.85114747
mean anomaly at epoch: 101.9050°
orbit number at epoch: 57297

The dashed part of the orbit path shows where the satellite is in the earth's shadow,  

DLR